Regional Weather Roundup
Issued by NWS

Home | Current Version | Previous Version | Graphics & Text | Print | Product List | Glossary On
Versions: 1 2 3 4 5 6 7 8 9 10 11 12 13 14 15 16 17 18 19 20 21 22 23 24 25 26 27 28 29 30 31 32 33 34 35 36 37 38 39 40 41 42 43 44 45 46 47 48 49 50
625
ASUS45 KTFX 250610
RWRMT
MONTANA REGIONAL WEATHER ROUNDUP
NATIONAL WEATHER SERVICE GREAT FALLS MT
1200 AM MDT SUN JUN 25 2017

NOTE: "FAIR" INDICATES FEW OR NO CLOUDS BELOW 12000 FEET WITH NO
SIGNIFICANT WEATHER AND/OR OBSTRUCTIONS TO VISIBILITY.

MTZ001>007-043-250700-
WEST OF THE DIVIDE

CITY           SKY/WX    TMP DP  RH WIND       PRES   REMARKS
KALISPELL      CLEAR     57  47  69 W5        30.21S
MISSOULA       CLEAR     60  39  45 NW3       30.23R
BUTTE          CLEAR     57  37  47 W5        30.35S
MULLAN PASS    CLEAR     60  30  32 VRB3      30.35F
ANACONDA         N/A     55  36  47 CALM      30.33S
DEER LODGE       N/A     55  39  54 W10       30.35R
EUREKA           N/A     55  43  62 MISG      30.19S
HAMILTON         N/A     55  45  67 CALM      30.24S
$$

MTZ008-052>055-250700-
SOUTHWEST MONTANA

CITY           SKY/WX    TMP DP  RH WIND       PRES   REMARKS
BOZEMAN        CLEAR     56  40  55 N6        30.31S
DILLON         CLEAR     57  39  51 NE6       30.31R
W YELLOWSTONE  CLEAR     46  34  61 CALM      30.40R
ENNIS          CLEAR     46  37  71 CALM      30.37S
THREE FORKS      N/A     56  42  59 CALM      30.27S
$$

MTZ009-010-012-014-046-048-049-054-250700-
EAST SLOPES AND CENTRAL MONTANA

CITY           SKY/WX    TMP DP  RH WIND       PRES   REMARKS
CUT BANK       PTCLDY    54  42  64 CALM      30.34F
GREAT FALLS    PTCLDY    56  41  57 E8        30.34F
MALMSTROM AFB  PTCLDY    55  43  63 E3        30.33F
HELENA         CLEAR     61  39  44 W8        30.32R
CHOTEAU          N/A     54  46  76 SW3       30.37F
$$

MTZ011-013-016-021-045-047-050-051-250700-
NORTH CENTRAL MONTANA

CITY           SKY/WX    TMP DP  RH WIND       PRES   REMARKS
HAVRE          CLEAR     48  40  73 S7        30.31S
LEWISTOWN      PTCLDY    54  39  57 E5        30.36F
N BAR RANCH    MOCLDY    52  37  58 SW7       30.40S
CHINOOK          N/A     52  39  62 N6        30.30S
FORT BENTON      N/A     55  43  62 MISG      30.34S
$$

MTZ017>020-022>027-061-062-250700-
NORTHEAST MONTANA

CITY           SKY/WX    TMP DP  RH WIND       PRES   REMARKS
GLASGOW        CLEAR     55  34  45 E8        30.27S
JORDAN           N/A     47  28  47 W5        30.30S
SIDNEY         CLEAR     47  38  71 S6        30.28F
WOLF POINT     CLEAR     48  32  53 NW3       30.27F
MALTA          CLEAR     50  37  62 CALM      30.27S
PLENTYWOOD       N/A     55  34  44 CALM      30.26S
POPLAR           N/A     54  36  50 CALM      30.28S
$$

MTZ028>42-056>058-250700-
SOUTHCENTRAL AND SOUTHEAST MONTANA

CITY           SKY/WX    TMP DP  RH WIND       PRES   REMARKS
BAKER          CLEAR     44  30  57 SE7       30.34S
BILLINGS       PTCLDY    60  38  43 CALM      30.34R
LIVINGSTON     CLEAR     56  38  50 E15       30.34S
MILES CITY     CLEAR     61  27  27 CALM      30.31R
BIG TIMBER     CLEAR     55  37  50 N5        30.40S
FORSYTH          N/A     52  32  46 CALM      30.31S
ROUNDUP          N/A     61  31  32 CALM      30.23S
$$

REGIONAL REPORTS...DAKOTAS

CITY           SKY/WX    TMP DP  RH WIND       PRES   REMARKS
WILLISTON      CLEAR     52  39  61 CALM      30.27S
MINOT          CLEAR     47  40  76 SW9       30.24F
DICKINSON      CLEAR     40  32  73 S7        30.29F
BEACH            N/A     43  34  70 S7        30.35S
CROSBY         MOCLDY    48  45  87 SW3       30.25S
TIOGA            N/A     45  41  87 S6        30.27F
WATFORD CITY     N/A     43  37  81 SW7       30.27F
BISMARCK       CLEAR     48  41  76 W6        30.30R
GRAND FORKS    MOCLDY    50  45  83 NW8       30.18R
FARGO          CLOUDY    53  44  71 NW13      30.18S
BUFFALO SD       N/A     53  32  44 E6        30.29S
RAPID CITY     CLEAR     49  32  52 CALM      30.38R
$$

REGIONAL REPORTS...WYOMING/IDAHO/WASHINGTON

CITY           SKY/WX    TMP DP  RH WIND       PRES   REMARKS
GILLETTE       PTCLDY    48  37  65 CALM      30.38R
SHERIDAN       PTCLDY    51  42  71 SW3       30.36S
BUFFALO WY     CLOUDY    60  33  36 CALM      30.41R
CODY           CLEAR     56  37  49 CALM      30.39S
YELLOWSTONE LA   N/A     42  33  70 CALM      30.47S
IDAHO FALLS    CLEAR     61  47  59 CALM      30.24S
SALMON         CLEAR     61  36  39 CALM      30.21S
BOISE          CLEAR     68  40  35 SE5       30.09S
SPOKANE        PTCLDY    70  39  32 CALM      30.14F
$$

REGIONAL REPORTS...ALBERTA

CITY           SKY/WX    TMP DP  RH WIND       PRES   REMARKS
EDMONTON       CLEAR     54  46  76 E5        30.24F
CALGARY        PTCLDY    59  41  51 SE8       30.31F
LETHBRIDGE     MOCLDY    54  48  82 S8        30.30F
MEDICINE HAT   CLEAR     54  48  82 SW6       30.28S
WATERTON GATE    N/A     45  43  93 SW3         N/A
MILK RIVER       N/A     48  45  87 W1          N/A
$$

REGIONAL REPORTS...SASKATCHEWAN

CITY           SKY/WX    TMP DP  RH WIND       PRES   REMARKS
SWIFT CURRENT  CLOUDY    50  45  81 S5        30.28S
SASKATOON      MOCLDY    54  50  87 W5        30.25S
CYPRESS HILLS    N/A     48  37  66 NW2         N/A
VAL MARIE        N/A     41  34  75 N3          N/A
ROCKGLEN         N/A     54  37  54 N3          N/A
ASSINIBOIA       N/A     52  48  87 S6          N/A
$$




USA.gov is the U.S. government's official web portal to all federal, state and local government web resources and services.